Theta_e
302 304 304 305 304 306 306 306 305 305 304 304 304 304 302 301 299 292 287 289 285 283 283 282 285 282 282 280 276 282 282 284 283 280 273 270 268 274 272 277 280 280 279 278 279 276 274 287 289 288 292 287 287 291
302 303 305 305 304 303 305 304 304 304 304 304 303 302 302 301 300 295 286 289 290 284 283 284 288 288 289 287 284 282 279 279 284 282 273 270 271 280 277 275 283 279 284 282 283 281 285 287 283 285 285 286 288 288
301 301 304 305 304 303 302 303 303 303 303 303 302 302 301 300 299 294 287 286 285 280 283 282 283 288 291 291 291 285 285 287 286 288 281 281 281 278 272 279 279 284 277 282 283 281 278 280 282 281 282 284 286 287
301 301 301 302 303 303 303 303 302 302 302 301 301 300 299 299 297 294 286 286 284 279 276 282 290 287 291 291 291 290 289 290 290 290 285 284 283 286 280 281 280 273 272 272 281 278 277 281 277 277 279 282 281 284
300 301 300 300 301 301 301 301 301 301 300 299 299 298 298 297 295 291 288 288 287 283 277 280 284 286 287 289 289 289 289 287 285 284 283 282 285 284 282 276 265 266 263 266 272 268 267 271 275 275 276 278 278 280
300 300 300 300 301 300 299 299 299 299 299 298 298 298 297 295 292 287 281 286 289 285 278 273 282 283 282 287 288 288 288 286 285 284 284 285 276 278 277 263 262 263 263 263 262 265 265 267 271 274 273 276 276 277
299 299 300 300 299 299 299 299 298 298 298 297 297 296 296 295 289 283 280 286 291 284 277 276 274 277 281 284 285 285 286 285 285 284 282 275 267 270 264 264 260 261 261 261 264 263 268 269 268 270 271 274 275 273
297 297 297 297 296 296 296 297 298 297 297 296 295 294 295 294 289 280 286 286 285 276 273 270 273 271 278 272 273 284 283 284 282 277 272 267 263 262 255 258 259 259 259 262 259 261 264 266 267 266 268 270 271 269
295 295 295 295 295 295 295 295 295 296 296 295 292 291 284 279 276 278 290 285 279 277 267 267 271 265 275 273 277 274 283 276 277 270 266 265 258 253 255 256 256 257 256 257 258 261 261 262 262 264 263 263 266 267
293 294 294 294 294 294 294 294 294 294 293 290 284 279 273 274 286 285 275 273 269 264 265 266 268 270 276 272 265 269 272 273 268 266 265 258 255 259 258 257 257 257 257 257 255 256 257 257 259 261 261 262 263 265
292 292 292 292 293 293 293 292 291 289 287 276 271 273 276 281 275 268 264 264 260 260 258 260 263 265 274 269 266 276 267 270 267 265 263 258 256 258 258 256 257 257 257 257 257 258 259 258 258 259 260 261 262 263
291 291 290 291 291 291 291 291 290 280 273 276 275 273 270 265 264 264 252 256 258 255 256 255 259 265 266 276 268 270 266 267 262 264 261 257 258 257 256 255 255 256 256 256 257 257 258 259 258 258 259 259 260 261
289 289 289 289 289 289 288 288 288 286 278 272 267 263 266 258 259 255 253 254 254 255 256 256 257 260 263 272 266 264 262 260 262 257 254 256 256 256 255 255 255 256 256 256 256 257 258 258 259 258 258 259 260 260
288 288 288 288 287 286 285 283 284 277 267 261 260 258 256 254 252 249 249 249 254 257 254 257 255 256 258 263 263 260 261 260 253 253 254 252 253 254 255 255 254 254 255 255 255 256 257 258 258 258 258 259 259 259
286 287 287 285 286 285 283 281 277 263 261 256 257 252 252 253 252 252 250 249 254 253 256 256 258 263 256 257 258 259 256 249 252 254 251 252 251 252 253 254 254 254 254 254 255 256 256 257 258 258 258 258 259 259
283 281 280 286 283 283 280 271 264 260 255 255 253 251 249 250 249 249 248 248 255 257 258 257 256 258 255 252 254 249 252 253 253 247 249 252 253 253 253 254 254 255 255 255 255 256 257 257 257 257 258 257 258 258
280 268 283 284 281 278 278 263 260 255 254 252 252 244 247 247 249 250 252 254 258 255 258 258 259 256 256 253 250 248 252 249 246 248 250 253 253 253 254 254 255 255 255 255 255 256 256 257 258 257 255 256 257 258
268 272 282 282 269 269 259 259 257 256 252 250 253 250 247 247 251 251 254 256 256 257 259 259 258 253 251 251 251 249 250 250 249 252 254 254 254 254 254 253 254 255 254 254 255 256 256 256 256 255 255 255 256 256
277 276 280 279 270 261 260 258 257 254 249 246 247 248 247 247 248 250 248 251 254 254 257 256 254 250 251 250 249 248 250 250 251 253 253 254 254 252 252 251 252 253 252 252 253 253 254 255 255 255 254 254 254 254
278 280 279 275 271 262 258 255 255 256 251 252 246 248 246 248 246 242 243 247 250 250 250 249 249 247 249 250 250 250 251 251 247 246 250 252 252 249 249 247 249 248 249 250 251 252 252 253 254 253 252 252 251 251
272 271 273 264 259 256 252 249 252 249 248 251 245 247 249 245 244 244 244 245 248 246 249 245 245 246 245 244 244 246 249 250 248 246 246 245 247 246 246 245 243 243 243 243 245 248 248 247 249 249 248 249 249 249
262 272 261 265 259 255 253 250 251 249 251 247 248 244 245 248 245 245 245 249 246 247 245 245 244 242 241 243 243 241 241 239 238 241 244 243 244 244 244 242 242 244 244 245 244 246 247 247 246 246 245 247 247 248
266 265 259 259 259 256 252 250 251 248 252 251 246 250 248 245 245 248 249 243 246 244 240 240 240 237 240 237 235 238 238 240 241 241 242 242 242 242 242 244 242 241 246 248 244 244 246 248 247 247 245 245 244 247
261 252 252 250 252 250 248 249 248 248 247 247 246 249 249 243 246 249 251 244 247 239 239 240 237 241 239 238 240 241 241 240 238 237 238 237 240 244 240 243 241 243 245 247 244 244 245 245 246 244 244 243 245 246
260 251 250 248 245 249 247 247 247 250 246 240 246 248 247 240 248 248 250 251 243 241 241 235 236 240 244 241 241 241 236 241 242 242 244 243 240 241 245 243 245 247 245 243 244 243 245 242 242 243 244 243 245 247
251 243 247 240 246 250 244 249 244 244 240 245 244 241 238 244 249 252 250 250 246 246 244 246 247 241 241 244 244 244 247 242 240 242 246 243 244 245 244 245 247 252 244 245 244 244 246 246 245 246 248 247 248 248
254 249 241 237 239 240 241 237 237 241 244 248 245 244 245 250 249 254 250 248 250 250 250 251 251 251 251 245 245 244 238 245 247 247 242 242 245 246 248 249 249 251 244 244 243 244 246 247 247 248 248 249 248 248
244 240 250 242 241 236 243 239 242 246 246 240 242 249 250 252 255 255 255 249 245 241 243 243 245 248 247 247 244 244 241 239 240 243 246 250 250 249 249 250 251 256 251 248 249 249 248 249 249 250 250 250 251 252
243 236 240 244 240 240 243 248 247 244 241 242 248 249 250 250 248 246 247 243 238 243 246 247 248 240 241 241 240 241 243 245 247 247 247 251 249 254 249 249 249 248 248 247 251 255 252 251 251 251 251 253 254 254
242 234 243 240 246 250 247 240 240 234 233 235 234 239 242 243 244 241 240 240 245 250 252 250 248 249 252 251 250 247 246 248 251 254 253 255 255 250 246 247 247 248 250 249 250 251 254 254 253 249 249 250 250 249
239 238 243 242 247 243 236 231 231 231 232 231 230 234 239 240 241 243 245 247 247 243 246 248 245 246 250 249 249 249 255 251 250 252 255 256 252 251 252 252 253 252 252 251 251 250 251 250 248 249 249 248 248 249
241 243 246 250 250 240 235 237 241 240 237 236 237 233 237 238 243 251 245 245 245 247 251 254 254 257 254 256 256 257 258 256 254 253 253 253 254 254 255 254 254 253 252 252 251 252 250 249 249 248 249 248 248 247
238 238 239 243 247 248 243 241 244 246 244 241 242 240 240 242 249 254 248 247 249 250 252 254 256 256 257 257 257 258 258 258 258 260 260 259 257 257 257 256 255 255 253 252 251 249 249 249 250 249 248 247 247 247
Wind_Speed
19 23 16 22 27 23 29 33 32 30 28 26 23 23 20 20 18 11 1 6 7 6 4 5 3 6 5 4 6 5 5 1 3 5 5 5 4 7 2 5 10 12 9 10 11 10 21 5 6 22 13 6 4 7
28 28 21 28 31 31 31 35 32 31 27 25 23 21 20 20 18 7 6 4 8 10 5 3 8 7 6 4 7 3 5 5 5 4 1 3 2 3 5 8 3 8 9 8 12 11 0 4 4 10 11 7 6 7
32 33 30 26 30 32 30 31 30 28 26 24 23 18 19 18 18 12 4 3 7 5 5 6 5 5 6 5 2 6 1 3 4 3 4 4 7 3 5 8 4 3 6 5 1 2 8 10 10 12 17 12 11 7
33 34 35 32 33 33 32 31 29 27 25 24 23 22 20 21 20 13 7 4 5 6 7 2 1 4 2 3 6 4 4 3 3 2 2 4 3 4 3 3 2 4 7 5 7 5 10 2 15 18 20 15 12 9
31 31 32 32 32 33 30 29 28 27 26 26 26 26 26 27 27 17 8 6 4 6 6 3 1 4 3 2 4 4 4 2 2 2 2 3 2 1 2 4 4 7 6 2 1 9 8 10 17 22 20 18 15 11
30 30 30 30 29 29 28 27 27 26 27 25 21 18 15 9 4 4 6 5 8 3 7 4 0 3 5 1 2 3 4 1 0 2 2 1 5 2 1 3 5 10 10 9 8 18 17 21 22 14 18 15 14 13
30 29 29 29 28 28 27 28 26 23 22 24 27 28 25 25 12 8 3 3 8 3 6 5 2 2 1 1 1 1 2 2 2 1 1 3 6 7 3 2 12 12 15 15 9 17 7 12 13 19 18 15 10 9
29 28 28 28 26 25 25 25 25 24 21 19 20 19 18 19 13 7 7 10 3 7 6 5 1 4 4 2 2 1 2 2 2 3 3 4 4 4 4 9 12 13 17 6 17 15 12 14 13 16 16 14 10 11
28 27 27 25 23 22 21 20 18 15 13 12 11 8 6 9 6 3 12 6 6 7 6 4 3 3 4 1 0 3 1 2 2 3 3 3 3 4 4 11 12 13 12 15 18 13 11 11 14 14 14 15 11 11
28 28 28 26 24 22 20 15 13 11 11 10 8 7 6 3 14 7 9 7 9 7 8 5 3 2 2 2 3 2 1 2 3 2 4 4 2 3 5 8 9 11 12 11 11 11 17 15 13 14 12 10 10 8
28 28 28 27 28 27 26 19 11 7 12 6 5 3 3 11 5 7 5 7 5 7 6 3 1 3 4 4 2 1 2 1 2 1 3 2 2 3 8 8 8 9 9 8 6 6 7 8 9 9 10 10 9 10
27 27 27 27 26 25 25 24 18 8 2 4 5 3 4 9 6 9 2 5 8 1 5 2 4 3 5 3 3 4 3 4 1 1 3 2 2 5 7 9 9 9 10 10 7 7 8 7 8 8 7 9 9 8
25 25 24 24 24 25 22 18 15 10 4 5 8 8 7 7 12 7 3 5 4 5 5 6 4 3 5 2 2 4 6 1 2 5 1 0 3 5 7 7 8 8 9 8 8 9 9 9 9 9 8 9 8 9
21 21 23 23 20 19 20 16 14 8 10 8 7 10 7 6 3 3 3 4 4 2 4 3 3 1 3 5 2 6 2 5 5 3 3 1 4 6 6 6 6 9 9 10 10 9 8 8 7 7 8 8 8 9
9 18 22 21 21 16 16 19 19 9 7 7 7 5 4 2 1 2 1 2 3 2 3 3 3 1 3 4 3 3 6 3 3 2 1 1 3 3 5 6 6 6 7 7 7 8 8 8 7 7 9 8 8 8
4 7 12 18 16 18 10 12 9 6 7 7 9 4 2 3 4 4 2 3 2 3 2 1 1 4 4 2 6 2 4 4 3 2 3 1 1 1 4 5 6 6 6 6 6 7 5 6 6 5 6 8 8 8
12 4 20 15 12 11 18 8 6 10 7 7 3 1 3 2 4 3 1 2 3 2 1 1 3 2 1 4 2 2 3 3 4 2 2 2 3 4 5 6 6 7 6 6 6 6 6 6 4 6 9 8 7 7
4 5 14 12 6 7 6 8 7 8 8 2 4 4 0 1 1 3 2 2 3 3 3 2 1 5 3 4 3 3 1 2 2 1 1 1 2 3 4 5 6 6 5 5 5 5 5 6 5 5 6 7 5 6
9 8 19 13 8 8 7 8 6 7 1 1 2 2 1 3 3 1 2 3 1 1 0 2 5 2 2 2 2 2 2 1 1 1 2 2 2 2 4 4 4 5 6 6 5 4 4 4 3 3 4 4 3 4
4 19 17 19 9 6 8 6 3 6 3 2 2 3 2 2 2 1 2 2 2 2 6 4 2 3 3 2 2 2 2 2 2 1 2 2 1 2 4 3 3 4 5 4 3 4 3 3 1 2 2 3 3 4
9 10 15 8 7 10 7 3 5 2 1 3 2 2 2 3 4 4 4 2 4 2 1 4 3 3 2 2 0 1 2 3 3 3 3 2 2 2 4 3 3 2 1 2 3 4 2 3 3 2 2 3 2 3
3 11 5 8 8 6 7 2 4 1 3 1 3 1 4 3 4 4 4 4 2 3 4 3 3 2 0 2 4 4 3 2 1 2 3 1 3 2 3 3 2 4 3 4 3 4 4 4 3 3 2 4 4 4
7 7 7 9 8 9 3 3 5 7 5 5 3 5 4 4 3 4 3 3 4 3 3 3 3 3 3 2 2 5 6 6 4 4 4 4 5 4 5 5 4 3 5 4 2 2 4 4 4 3 2 3 2 4
12 11 9 7 6 1 3 6 3 4 4 6 5 5 5 4 7 4 1 4 4 1 1 3 3 1 2 1 3 4 4 5 2 3 4 3 3 4 4 4 3 5 6 5 3 4 3 4 3 3 3 3 4 5
11 12 7 7 4 6 8 7 7 6 2 2 3 4 4 4 4 3 3 5 2 3 3 2 2 2 3 3 4 4 3 5 4 4 3 5 2 3 3 3 4 5 4 2 3 3 4 2 2 3 3 3 6 8
9 6 5 3 4 4 2 2 1 1 1 3 4 3 3 3 3 6 5 5 5 5 6 7 7 3 4 6 4 2 4 6 4 1 5 5 5 4 3 3 5 7 3 3 3 3 5 3 4 6 7 6 6 7
5 3 2 0 3 4 3 2 1 3 0 2 3 3 3 2 5 7 4 4 4 5 5 5 7 7 5 4 4 4 3 6 6 4 1 3 4 5 5 5 7 6 2 4 4 4 5 6 6 6 8 8 5 6
3 2 2 1 2 1 3 1 2 4 4 2 3 1 6 9 7 5 6 2 2 1 2 2 2 3 3 4 3 4 2 1 3 4 4 7 8 7 9 8 9 13 6 5 6 5 5 7 7 8 9 10 10 7
3 1 1 2 1 1 5 6 5 3 1 4 5 5 7 5 4 3 3 1 0 2 2 2 4 1 2 1 1 1 3 4 5 2 5 5 4 5 7 6 6 5 4 4 8 10 10 9 10 9 10 8 7 7
1 1 3 1 3 5 4 3 3 2 2 1 2 5 5 6 7 2 2 2 3 6 4 4 3 5 5 5 4 4 6 8 9 9 6 7 6 2 4 4 4 4 4 4 6 5 9 6 6 4 4 5 5 5
1 1 1 1 4 2 1 1 1 1 1 1 0 3 5 8 9 5 6 4 3 3 3 4 3 4 5 5 5 3 5 7 12 14 11 6 4 4 5 5 5 4 4 4 4 4 5 4 3 6 7 8 8 8
1 1 0 3 4 1 0 2 1 2 1 1 3 1 4 4 7 6 3 3 3 5 9 6 7 8 9 7 5 6 4 2 5 8 10 7 7 7 5 4 4 4 4 5 5 5 5 6 5 5 7 9 8 8
1 0 1 3 4 3 2 3 1 4 2 3 4 4 3 3 8 6 2 4 3 3 4 6 6 3 4 6 6 5 7 5 5 8 9 10 11 9 5 4 4 4 5 4 4 4 7 8 7 7 7 8 8 8
Wind_Direction
66 54 90 110 87 85 106 107 105 106 101 96 92 88 82 77 73 79 97 13 113 93 54 30 51 120 88 96 127 185 84 289 100 160 145 211 168 226 133 219 180 183 185 205 221 235 253 192 143 191 233 300 293 297
65 52 96 104 99 87 95 101 101 98 98 97 95 87 71 64 64 71 74 358 51 76 96 73 73 56 40 69 119 181 153 153 174 167 156 136 199 204 170 239 241 222 204 199 196 215 14 57 89 344 326 297 333 313
71 57 64 108 109 107 99 96 97 98 95 90 88 86 78 62 62 80 97 10 54 91 45 40 26 32 44 41 1 127 255 190 158 144 160 198 241 133 185 227 211 237 17 236 5 341 349 28 5 1 327 318 320 315
72 72 67 72 76 82 96 101 103 97 91 89 94 94 83 79 70 69 67 336 73 104 102 86 64 50 26 70 54 38 84 68 71 74 173 216 234 205 237 287 279 352 332 352 274 8 322 121 24 346 332 325 340 345
70 73 78 76 78 77 76 82 89 96 99 98 92 89 91 92 91 82 77 36 41 109 120 105 63 35 9 24 105 107 104 126 140 186 189 219 220 235 97 92 47 344 0 302 318 2 310 291 327 336 333 334 344 1
70 74 73 75 74 74 79 84 86 91 95 91 70 72 80 103 107 47 52 5 11 50 97 89 217 37 355 309 155 181 163 137 211 188 224 182 65 315 256 68 42 359 336 322 294 320 301 280 281 340 323 334 359 23
64 66 69 72 72 73 75 74 77 86 87 84 79 74 75 78 71 58 100 290 343 51 86 93 43 294 19 2 104 87 108 153 186 226 62 48 22 27 36 133 351 339 322 309 322 330 340 358 325 327 328 342 8 33
59 60 61 62 65 67 68 71 76 83 84 72 70 72 84 86 85 36 10 12 61 89 65 105 111 36 10 2 80 214 141 158 71 85 56 47 36 42 79 335 336 336 325 307 339 328 294 312 336 346 340 348 26 32
56 58 58 57 53 51 53 57 65 74 71 51 30 59 57 37 43 284 331 47 46 79 100 70 87 228 356 307 283 9 117 92 56 67 52 59 11 56 331 329 330 335 333 312 318 305 347 348 350 354 358 357 14 20
49 48 49 49 48 48 50 50 51 60 58 24 35 39 31 319 308 341 5 24 21 355 21 73 333 328 343 355 331 71 20 141 80 51 107 65 106 129 20 336 320 321 324 327 340 345 342 343 344 345 359 358 359 0
43 43 43 41 37 37 37 44 48 39 36 37 45 65 253 326 46 32 41 49 334 35 12 329 332 308 329 47 294 355 190 347 80 320 94 31 55 20 354 336 332 328 322 314 308 303 319 316 326 338 352 1 3 9
40 39 39 37 36 34 34 33 34 49 74 116 116 89 29 30 29 73 4 343 42 135 330 330 309 340 299 319 70 331 104 35 154 2 68 64 52 3 344 335 331 331 333 325 333 337 346 351 352 344 355 0 7 3
38 39 38 36 33 31 31 40 55 90 78 37 43 46 23 322 43 57 357 342 24 348 358 345 317 350 323 316 18 51 67 186 91 44 177 355 12 2 344 332 330 333 335 335 347 360 360 6 13 9 5 5 13 27
37 39 37 32 33 36 33 37 36 53 60 62 43 26 53 358 51 177 185 202 262 355 333 306 275 339 302 17 2 78 262 60 51 51 272 313 7 350 339 328 326 336 342 343 346 354 358 12 9 8 16 13 19 27
37 37 31 27 17 22 33 44 46 48 61 62 47 51 58 242 308 273 253 14 298 253 328 335 299 301 342 53 28 73 34 21 180 215 246 298 325 334 323 323 329 339 341 342 344 350 356 360 1 15 13 13 21 27
74 58 14 11 22 18 30 37 34 68 55 68 45 54 325 58 326 357 354 304 292 328 295 212 283 54 22 102 48 160 110 210 222 202 232 251 296 323 325 322 327 331 340 339 347 349 348 358 1 359 20 19 17 20
58 28 337 357 14 26 34 71 52 48 84 50 29 30 132 142 205 251 234 268 307 303 17 327 54 195 53 59 39 199 192 207 209 262 277 348 344 344 335 332 341 341 346 349 339 351 356 340 5 26 26 6 1 12
46 298 354 0 39 44 35 38 77 71 67 348 85 270 291 181 311 313 300 335 327 353 329 61 86 49 115 141 241 217 193 235 192 154 308 339 334 337 340 333 337 336 338 339 341 336 352 356 18 22 5 354 346 7
42 23 23 27 67 84 62 23 39 89 149 253 328 359 207 248 248 302 332 307 305 323 3 40 66 124 194 205 171 219 214 165 120 341 295 285 284 321 330 324 321 331 330 325 328 331 325 330 344 0 347 346 349 342
29 25 21 33 47 71 60 13 28 83 90 247 61 2 232 221 286 342 316 1 47 59 42 48 198 211 192 224 192 160 151 152 119 7 283 253 228 319 309 300 300 301 302 296 316 327 319 327 317 348 334 334 335 318
30 348 12 50 49 62 84 357 48 99 176 86 278 43 288 12 25 8 326 343 64 68 84 216 213 234 206 232 62 135 196 170 198 184 207 280 273 276 278 264 256 280 255 299 295 299 320 265 273 294 315 305 277 268
307 6 46 24 69 49 78 359 115 245 71 219 25 32 28 12 330 319 291 56 64 233 191 182 219 179 234 248 221 201 208 162 183 255 266 301 284 311 283 247 329 296 273 259 239 255 268 270 284 290 297 287 298 291
16 32 45 19 68 43 305 33 61 359 56 329 8 31 357 342 253 323 52 219 250 224 186 192 212 200 200 277 290 250 202 188 218 222 232 232 248 256 261 261 211 235 293 285 207 240 265 271 274 273 268 280 290 303
30 48 42 42 30 19 346 19 36 30 37 26 24 356 343 296 323 39 172 261 247 341 226 222 152 78 333 357 267 245 209 174 206 278 210 182 265 268 211 245 223 221 222 263 260 274 276 277 301 324 322 317 307 296
63 356 37 2 351 43 30 5 350 34 28 339 14 342 328 352 17 355 241 268 266 238 215 139 159 214 190 266 284 261 201 164 174 221 250 192 192 304 289 259 259 247 177 177 269 248 266 284 276 272 272 261 286 297
67 320 55 210 301 80 195 40 15 282 155 341 243 268 13 66 39 254 236 224 223 201 186 189 182 177 253 210 224 249 234 168 126 158 269 184 187 183 243 301 320 308 190 179 166 252 280 286 292 301 299 288 267 277
61 326 350 244 114 116 69 48 81 93 107 221 262 6 42 29 257 251 269 220 203 216 195 170 166 182 199 201 224 227 171 174 185 187 204 196 211 203 195 228 256 242 184 185 193 204 252 283 285 282 287 292 264 253
129 136 138 261 56 11 138 79 157 218 231 206 87 273 185 198 236 234 210 262 200 174 149 205 197 173 168 200 183 134 149 182 317 310 286 256 233 223 220 232 244 255 249 220 234 240 239 254 264 272 272 274 284 271
69 309 114 31 352 219 218 193 220 231 184 139 164 242 242 236 252 247 263 216 87 103 131 202 252 160 301 290 241 199 138 148 131 232 263 265 316 278 195 209 223 223 220 233 257 249 236 234 240 242 250 258 270 287
257 207 105 121 182 236 232 164 219 251 240 241 299 300 276 267 249 208 171 163 183 207 206 191 167 169 208 190 236 256 205 199 204 205 212 233 228 232 169 191 214 225 215 223 247 260 276 289 299 304 280 277 274 272
104 19 3 193 254 261 254 302 228 276 302 284 228 218 269 305 304 246 219 212 194 137 146 215 223 205 195 201 199 206 265 202 213 221 234 257 251 232 230 228 229 219 217 225 237 243 258 263 243 264 274 279 281 280
99 114 53 296 292 23 66 342 290 277 238 303 259 252 290 307 274 278 177 125 126 205 224 213 211 230 205 230 221 224 231 163 188 207 215 225 239 243 242 234 227 216 216 229 232 243 242 251 262 259 274 279 276 279
47 192 241 295 304 315 348 343 327 308 223 265 255 203 231 236 261 297 273 213 197 191 212 220 232 222 220 213 221 231 225 234 228 236 234 237 241 247 241 224 223 222 233 239 241 244 262 266 268 270 277 283 287 287